Regional Weather Roundup
Issued by NWS Newport/Morehead, NC

Current Version | Previous Version | Text Only | Print | Product List | Glossary On
Versions: 1 2 3 4 5 6 7 8 9 10 11 12 13 14 15 16 17 18 19 20 21 22 23 24 25 26 27 28 29 30 31 32 33 34 35 36 37 38 39 40 41 42 43 44 45 46 47 48 49 50
000
ASUS42 KMHX 270412
RWRMHX
WEATHER ROUNDUP FOR EASTERN NORTH CAROLINA
NATIONAL WEATHER SERVICE NEWPORT/MOREHEAD CITY NC
1100 PM EST THU FEB 26 2015

NOTE: "FAIR" INDICATES FEW OR NO CLOUDS BELOW 12,000 FEET
WITH NO SIGNIFICANT WEATHER AND/OR OBSTRUCTIONS TO VISIBILITY

NCZ015>017-031-032-045>047-102-103-270500-
NORTH COAST

CITY           SKY/WX    TMP DP  RH WIND       PRES   REMARKS
EDENTON        CLOUDY    32  29  89 N3        30.14R
ELIZABETH CITY NOT AVBL
KITTY HAWK     CLOUDY    33  30  88 N6G18     30.10R
MANTEO         CLOUDY    34  28  80 N14       30.11S

$$

NCZ045>047-081-094-103-104-270500-
CENTRAL COAST

CITY           SKY/WX    TMP DP  RH WIND       PRES   REMARKS
FRISCO         CLOUDY    34  31  88 N10G24    30.08S
SWANQUARTER      N/A     32 N/A N/A N3G10     30.09R

$$

NCZ095-097-098-100-101-270500-
SOUTHERN COAST

CITY           SKY/WX    TMP DP  RH WIND       PRES   REMARKS
BEAUFORT       CLOUDY    35  32  88 N9        30.13R
CEDAR ISLAND     N/A     34 N/A N/A NW16      30.15S
JACKSONVILLE   CLOUDY    36  31  82 N9        30.15R
PINEY ISLAND     N/A    N/A N/A N/A MISG      30.13R
WILMINGTON     CLOUDY    37  32  82 N7        30.15R


$$

NCZ011>013-027>030-043-044-078>080-089-090>093-098-270500-
COASTAL PLAIN

CITY           SKY/WX    TMP DP  RH WIND       PRES   REMARKS
AHOSKIE          N/A     30  29  96 CALM      30.16R FOG
CLINTON        CLOUDY    36  34  94 CALM      30.18R
ELIZABETHTOWN  CLOUDY    37  32  85 CALM      30.17R
GOLDSBORO      NOT AVBL
GREENVILLE     CLOUDY    34  32  93 CALM      30.17R
HAVELOCK       CLOUDY    36  30  79 N8        30.15R
KENANSVILLE    CLOUDY    35  33  90 CALM      30.17R
KINSTON        CLOUDY    35  32  90 CALM      30.16R
NEW BERN       CLOUDY    35  31  85 N3        30.16R
RICHLANDS      CLOUDY    36  30  80 CALM      30.16R
ROCKY MOUNT    CLOUDY    33  31  92 CALM      30.16R FOG
WASHINGTON     CLOUDY    33  31  94 CALM      30.15R
WHITEVILLE     CLOUDY    37  33  89 CALM      30.16R

$$

AMZ130-135-150-152-154-156-158-170-250-252-270-ANZ085-086-088-633-658-670-270500-
MARINE OBSERVATIONS

STATION/POSITION TIME  TEMP    WIND        PRES    WAVE   SWELL
                       AIR SEA DIR/SP/G            HT/PER HT/PER
                 (UTC) (F)     (DEG/KT/KT) (MB)    (FT/S) (FT/S)
CHESAPEAKE LIGHT 0300   32      20/ 15/ 17 1019.5
64 E VA BEACH    0350   42 60   20/ 19/ 25 1017.5   13/10  11/10
DUCK             0300   33 34   10/ 15/ 19 1017.9
2 E DUCK         0311      35                N/A     9/10   3/11
10 NE DUCK       0322      37                N/A    10/ 9   3/11
OREGON INLET     0300   33 37  350/ 16/ 22 1018.6
HATTERAS CG      0300   35 40  360/ 23/ 25 1018.7
CAPE LOOKOUT     0400   36     350/ 13/ 16 1019.7
BEAUFORT LAB     0300   36 40  360/ 13/ 16 1018.5
27 SE WRIGHTSVLE NOT AVBL
5 SE WRIGHTSVLE  NOT AVBL
225 S CAPE HAT   0350   62 70  310/ 14/ 17 1016.5   10/10   8/10
41 SE CHARLESTON 0350   45 65   20/ 12/ 17 1020.1    5/ 9   5/ 9

$$



USA.gov is the U.S. government's official web portal to all federal, state and local government web resources and services.